When you browse on this site, cookies collect data to enhance your experience and personalize the content and advertising you see.
Visit our Privacy Policy to learn more. By continuing to use the site, you agree to this use of cookies and data.
  • en Suisse
  • Liste des pays
  • À 7 jours
  • Température de l'eau
  • Carte satellitaire
  • Carte météo
  • Widgets météo
  • user-avatar
    Se connecter

    Météo par heure à Glinischi

    Ce jour, 27 Juin, Jeudi

    Heure Température Précipitation Vent Pression Humidité
    00:00 +18°C° 1 mm 1 m/s 741 mmHg 89%
    01:00 +16°C° 1 mm 2 m/s 741 mmHg 92%
    02:00 +16°C° 0 mm 3 m/s 740 mmHg 93%
    03:00 +16°C° 0.2 mm 3 m/s 740 mmHg 94%
    04:00 +16°C° 0.2 mm 3 m/s 739 mmHg 95%
    05:00 +16°C° 0.2 mm 3 m/s 739 mmHg 95%
    06:00 +16°C° 0.2 mm 3 m/s 738 mmHg 95%
    07:00 +17°C° 0.2 mm 3 m/s 737 mmHg 94%
    08:00 +17°C° 0.2 mm 3 m/s 737 mmHg 94%
    09:00 +18°C° 1.9 mm 3 m/s 736 mmHg 95%
    10:00 +18°C° 1.9 mm 3 m/s 735 mmHg 96%
    11:00 +18°C° 1.9 mm 4 m/s 734 mmHg 97%
    12:00 +19°C° 0.7 mm 4 m/s 733 mmHg 96%
    13:00 +20°C° 0.7 mm 4 m/s 732 mmHg 94%
    14:00 +21°C° 0.7 mm 5 m/s 731 mmHg 92%
    15:00 +21°C° 1.1 mm 4 m/s 730 mmHg 91%
    16:00 +21°C° 1.1 mm 4 m/s 730 mmHg 90%
    17:00 +22°C° 1.1 mm 3 m/s 729 mmHg 89%
    18:00 +21°C° 1.5 mm 3 m/s 728 mmHg 90%
    19:00 +20°C° 1.5 mm 3 m/s 727 mmHg 91%
    20:00 +19°C° 1.5 mm 3 m/s 726 mmHg 93%
    21:00 +19°C° 0.2 mm 4 m/s 726 mmHg 94%
    22:00 +18°C° 0.2 mm 4 m/s 725 mmHg 95%
    23:00 +17°C° 0.2 mm 5 m/s 725 mmHg 96%

    Demain, 28 Juin, Vendredi

    Heure Température Précipitation Vent Pression Humidité
    00:00 +16°C° 0 mm 5 m/s 725 mmHg 95%
    01:00 +16°C° 0 mm 6 m/s 725 mmHg 94%
    02:00 +15°C° 0 mm 6 m/s 725 mmHg 93%
    03:00 +15°C° 0 mm 6 m/s 725 mmHg 93%
    04:00 +14°C° 0 mm 6 m/s 725 mmHg 93%
    05:00 +14°C° 0 mm 5 m/s 725 mmHg 92%
    06:00 +14°C° 0.1 mm 6 m/s 724 mmHg 91%
    07:00 +13°C° 0.1 mm 6 m/s 724 mmHg 91%
    08:00 +13°C° 0.1 mm 6 m/s 724 mmHg 90%
    09:00 +13°C° 0.1 mm 6 m/s 724 mmHg 89%
    10:00 +13°C° 0.1 mm 6 m/s 724 mmHg 89%
    11:00 +14°C° 0.1 mm 7 m/s 724 mmHg 88%
    12:00 +14°C° 0.1 mm 6 m/s 724 mmHg 87%
    13:00 +13°C° 0.1 mm 6 m/s 724 mmHg 87%
    14:00 +13°C° 0.1 mm 6 m/s 724 mmHg 86%
    15:00 +13°C° 0.1 mm 5 m/s 724 mmHg 86%
    16:00 +13°C° 0.1 mm 4 m/s 724 mmHg 87%
    17:00 +13°C° 0.1 mm 4 m/s 724 mmHg 88%
    18:00 +12°C° 0.2 mm 5 m/s 724 mmHg 90%
    19:00 +10°C° 0.2 mm 6 m/s 724 mmHg 92%
    20:00 +9°C° 0.2 mm 7 m/s 724 mmHg 94%
    21:00 +9°C° 0.3 mm 7 m/s 725 mmHg 94%
    22:00 +8°C° 0.3 mm 7 m/s 725 mmHg 94%
    23:00 +8°C° 0.3 mm 7 m/s 725 mmHg 95%

    Après-demain, 29 Juin, Samedi

    Heure Température Précipitation Vent Pression Humidité
    00:00 +8°C° 0.3 mm 7 m/s 725 mmHg 95%
    01:00 +8°C° 0.3 mm 6 m/s 725 mmHg 95%
    02:00 +8°C° 0.3 mm 6 m/s 725 mmHg 96%
    03:00 +9°C° 0.4 mm 6 m/s 725 mmHg 96%
    04:00 +9°C° 0.4 mm 6 m/s 725 mmHg 96%
    05:00 +9°C° 0.4 mm 6 m/s 726 mmHg 95%
    06:00 +9°C° 0.5 mm 7 m/s 726 mmHg 95%
    07:00 +9°C° 0.5 mm 7 m/s 727 mmHg 95%
    08:00 +9°C° 0.5 mm 8 m/s 727 mmHg 95%
    09:00 +8°C° 0.3 mm 7 m/s 728 mmHg 95%
    10:00 +8°C° 0.3 mm 7 m/s 729 mmHg 95%
    11:00 +6°C° 0.3 mm 7 m/s 729 mmHg 94%
    12:00 +6°C° 0 mm 7 m/s 730 mmHg 93%
    13:00 +6°C° 0 mm 7 m/s 731 mmHg 91%
    14:00 +8°C° 0 mm 7 m/s 732 mmHg 90%
    15:00 +8°C° 0 mm 6 m/s 732 mmHg 87%
    16:00 +8°C° 0 mm 6 m/s 732 mmHg 84%
    17:00 +8°C° 0 mm 6 m/s 733 mmHg 82%
    18:00 +9°C° 0 mm 5 m/s 733 mmHg 79%
    19:00 +10°C° 0 mm 4 m/s 734 mmHg 77%
    20:00 +10°C° 0 mm 4 m/s 734 mmHg 75%
    21:00 +10°C° 0 mm 4 m/s 734 mmHg 76%
    22:00 +10°C° 0 mm 3 m/s 734 mmHg 77%
    23:00 +10°C° 0 mm 3 m/s 734 mmHg 78%

    30 Juin, Dimanche

    Heure Température Précipitation Vent Pression Humidité
    00:00 +9°C° 0 mm 3 m/s 734 mmHg 77%
    01:00 +9°C° 0 mm 3 m/s 735 mmHg 76%
    02:00 +9°C° 0 mm 3 m/s 735 mmHg 76%
    03:00 +9°C° 0 mm 3 m/s 735 mmHg 77%
    04:00 +9°C° 0 mm 3 m/s 735 mmHg 77%
    05:00 +8°C° 0 mm 3 m/s 735 mmHg 78%
    06:00 +10°C° 0 mm 4 m/s 736 mmHg 72%
    07:00 +12°C° 0 mm 4 m/s 736 mmHg 67%
    08:00 +14°C° 0 mm 4 m/s 736 mmHg 61%
    09:00 +15°C° 0 mm 4 m/s 736 mmHg 59%
    10:00 +18°C° 0 mm 4 m/s 737 mmHg 57%
    11:00 +19°C° 0 mm 4 m/s 737 mmHg 55%
    12:00 +19°C° 0.1 mm 4 m/s 737 mmHg 58%
    13:00 +19°C° 0.1 mm 4 m/s 737 mmHg 62%
    14:00 +20°C° 0.1 mm 5 m/s 736 mmHg 65%
    15:00 +19°C° 0.2 mm 4 m/s 736 mmHg 69%
    16:00 +19°C° 0.2 mm 4 m/s 737 mmHg 72%
    17:00 +19°C° 0.2 mm 4 m/s 737 mmHg 75%
    18:00 +17°C° 0 mm 4 m/s 737 mmHg 80%
    19:00 +16°C° 0 mm 3 m/s 737 mmHg 84%
    20:00 +13°C° 0 mm 3 m/s 737 mmHg 89%
    21:00 +13°C° 0 mm 3 m/s 738 mmHg 90%
    22:00 +13°C° 0 mm 2 m/s 738 mmHg 91%
    23:00 +12°C° 0 mm 2 m/s 738 mmHg 93%

    1 Juillet, Lundi

    Heure Température Précipitation Vent Pression Humidité
    00:00 +12°C° 0 mm 2 m/s 738 mmHg 93%
    01:00 +12°C° 0 mm 2 m/s 739 mmHg 93%
    02:00 +11°C° 0 mm 1 m/s 739 mmHg 93%
    03:00 +12°C° 0 mm 1 m/s 739 mmHg 93%
    04:00 +12°C° 0 mm 1 m/s 739 mmHg 92%
    05:00 +13°C° 0 mm 1 m/s 739 mmHg 92%
    06:00 +14°C° 0 mm 2 m/s 739 mmHg 89%
    07:00 +15°C° 0 mm 2 m/s 739 mmHg 85%
    08:00 +17°C° 0 mm 2 m/s 738 mmHg 82%
    09:00 +19°C° 0 mm 2 m/s 738 mmHg 78%
    10:00 +21°C° 0 mm 3 m/s 738 mmHg 75%
    11:00 +24°C° 0 mm 3 m/s 738 mmHg 71%
    12:00 +23°C° 0.1 mm 4 m/s 738 mmHg 71%
    13:00 +25°C° 0.1 mm 4 m/s 737 mmHg 71%
    14:00 +26°C° 0.1 mm 4 m/s 737 mmHg 71%
    15:00 +26°C° 0 mm 3 m/s 737 mmHg 71%
    16:00 +26°C° 0 mm 3 m/s 736 mmHg 71%
    17:00 +27°C° 0 mm 2 m/s 736 mmHg 71%
    18:00 +25°C° 0.1 mm 2 m/s 736 mmHg 77%
    19:00 +23°C° 0.1 mm 2 m/s 736 mmHg 83%
    20:00 +21°C° 0.1 mm 2 m/s 735 mmHg 90%
    21:00 +20°C° 0.1 mm 2 m/s 735 mmHg 91%
    22:00 +20°C° 0.1 mm 2 m/s 735 mmHg 93%
    23:00 +19°C° 0.1 mm 3 m/s 735 mmHg 95%

    2 Juillet, Mardi

    Heure Température Précipitation Vent Pression Humidité
    00:00 +19°C° 0.2 mm 2 m/s 734 mmHg 95%
    01:00 +19°C° 0.2 mm 2 m/s 734 mmHg 96%
    02:00 +18°C° 0.2 mm 2 m/s 734 mmHg 96%
    03:00 +18°C° 0.5 mm 2 m/s 734 mmHg 96%
    04:00 +18°C° 0.5 mm 3 m/s 734 mmHg 96%
    05:00 +18°C° 0.5 mm 3 m/s 734 mmHg 95%
    06:00 +19°C° 0 mm 3 m/s 734 mmHg 91%
    07:00 +20°C° 0 mm 4 m/s 734 mmHg 87%
    08:00 +20°C° 0 mm 4 m/s 734 mmHg 83%
    09:00 +21°C° 0 mm 5 m/s 735 mmHg 77%
    10:00 +22°C° 0 mm 5 m/s 735 mmHg 70%
    11:00 +23°C° 0 mm 6 m/s 735 mmHg 64%
    12:00 +23°C° 0 mm 6 m/s 735 mmHg 62%
    13:00 +23°C° 0 mm 6 m/s 735 mmHg 60%
    14:00 +23°C° 0 mm 6 m/s 735 mmHg 57%
    15:00 +23°C° 0 mm 6 m/s 735 mmHg 61%
    16:00 +22°C° 0 mm 5 m/s 735 mmHg 65%
    17:00 +22°C° 0 mm 5 m/s 735 mmHg 69%
    18:00 +21°C° 0 mm 4 m/s 735 mmHg 73%
    19:00 +19°C° 0 mm 4 m/s 735 mmHg 78%
    20:00 +17°C° 0 mm 3 m/s 735 mmHg 83%
    21:00 +17°C° 0 mm 3 m/s 735 mmHg 87%
    22:00 +16°C° 0 mm 3 m/s 735 mmHg 91%
    23:00 +14°C° 0 mm 3 m/s 735 mmHg 95%
    Voir plus